YAOGAN-31 01A (43275 NORAD) Tracking and Keplerian Element Data

This shows tracking and keplerian element data for the satellite.

Feedback or suggestion? Click here.




ElementValue
Catalog43275
NameYAOGAN-31 01A
Epoch Orbit33520
Epoch Day35.15452703
Epoch Year2025
RAAN292.3273
Inclination63.3981
Eccentricity0.0231266
Argument of Perigee5.9337
Mean Anonmoly354.4344
Mean Motion13.45388411
Decay Rate3.1E-07
L11 43275U 18034A 25035.15452703 .00000031 00000+0 17381-3 0 9995
L22 43275 63.3981 292.3273 0231266 5.9337 354.4344 13.45388411335206



Live tracking and technical data element details for YAOGAN-31 01A (NORAD 43275). YAOGAN-31 01A can be tracked NOW for your location showing map with azimuth and elevation plus other details from your city location.







IsCatalogInMostPopularTable: catalog: 43275, numindb: 381
Update: records affected: 1



GetName: 43275 YAOGAN-31 01A

Hit Count: updated at: Thu, 22 May 2025 03:33:06 GMT